SCP
0 0 0 0 0 0 0 0 0 0 0 0 0 0 0 0 0 0 0 0 0 0
0 0 0 0 0 0 0 0 0 0 0 0 0 0 0 0 0 0 0 0 0 0
0 0 0 0 0 0 0 0 0 0 0 0 0 0 0 0 0 0 0 0 0 0
0 0 0 0 0 0 0 0 0 0 0 0 0 0 0 0 0 0 0 0 0 0
0 0 0 0 0 0 0 0 0 0 0 0 0 0 0 0 0 0 0 0 0 0
0 0 0 0 0 0 0 0 0 0 0 0 0 0 0 0 0 0 0 0 0 0
0 0 0 0 0 0 0 0 0 0 0 0 0 0 0 0 0 0 0 0 0 0
0 0 0 0 0 0 0 0 0 0 0 0 0 0 0 0 0 0 0 0 0 0
0 0 0 0 0 0 0 0 0 0 0 0 0 0 0 0 0 0 0 0 0 0
0 0 0 0 0 0 0 0 0 0 0 0 0 0 0 0 0 0 0 0 0 0
0 0 0 0 0 0 0 0 0 0 0 0 0 0 0 0 0 0 0 0 0 0
0 0 0 0 0 0 0 0 0 0 0 0 0 0 0 0 0 0 0 0 0 0
0 0 0 0 0 0 0 0 0 0 0 0 0 0 0 0 0 0 0 0 0 0
0 0 0 0 0 0 0 0 0 0 0 0 0 0 0 0 0 0 0 0 0 0
Wind_Speed_500mb
29 25 21 18 16 14 10 5 2 2 5 7 9 11 13 15 16 17 18 19 20 21
34 31 26 23 21 17 14 10 5 5 5 6 8 9 11 12 14 15 16 18 19 20
37 34 31 29 24 20 18 15 12 10 11 11 12 12 13 13 14 17 17 18 19 21
41 39 36 33 30 26 24 21 18 17 15 16 17 18 19 19 19 19 21 22 23 25
43 43 43 40 36 34 31 28 25 24 22 22 22 24 24 24 24 25 25 26 28 28
41 45 45 44 41 40 36 34 33 31 29 28 28 30 30 30 31 32 31 32 35 35
34 39 42 42 42 42 42 41 39 38 38 37 36 38 37 38 38 39 38 40 42 44
24 29 35 38 40 42 45 45 45 46 47 47 46 46 45 46 45 46 47 48 49 50
29 30 34 38 41 44 47 48 49 50 52 54 56 55 53 54 54 54 56 58 57 56
35 36 37 39 41 43 46 48 51 52 54 55 57 58 58 57 59 62 63 65 65 68
34 34 36 37 39 41 43 45 47 50 52 56 56 58 59 61 64 66 67 67 69 73
30 30 31 33 34 37 39 42 45 49 50 52 53 55 57 61 64 67 69 70 70 72
25 26 27 29 31 33 36 38 41 42 44 48 52 55 56 57 62 67 71 72 71 70
18 19 21 23 26 29 32 35 39 41 44 48 51 54 55 56 57 63 68 71 73 70
Wind_Direction_500mb
218 218 217 211 204 200 196 192 183 21 23 22 14 14 12 7 2 2 5 4 1 356
223 221 221 222 217 214 214 215 240 280 304 321 330 337 346 347 347 345 349 349 347 343
230 227 226 228 229 230 232 236 247 260 279 293 298 310 315 322 329 329 332 333 331 331
235 235 234 235 237 239 242 248 256 265 274 285 289 296 298 306 310 313 316 319 322 323
236 237 238 239 240 243 248 255 261 267 275 281 285 284 285 290 295 298 302 307 311 315
238 240 242 242 243 248 253 258 263 267 274 280 281 280 281 284 285 287 293 300 303 305
242 246 248 249 248 249 253 260 264 267 269 272 276 279 280 280 280 284 289 294 297 299
247 245 245 245 249 251 254 257 259 263 266 268 271 276 277 277 279 282 285 288 292 294
234 235 236 239 243 245 249 253 258 262 263 265 271 273 278 281 281 282 284 287 288 289
236 239 241 244 248 251 254 257 261 264 267 269 271 275 278 282 285 287 288 290 291 291
236 240 243 246 249 254 257 259 263 267 271 274 275 277 281 284 285 286 288 289 290 290
230 238 244 249 250 253 259 264 269 272 274 276 277 278 280 283 286 287 288 289 290 292
234 242 249 254 259 264 266 270 271 273 276 278 281 284 285 287 289 291 291 291 293 294
240 250 258 265 270 273 276 278 279 281 285 287 288 290 292 293 293 293 296 296 296 297
Wind_Speed_850mb
29 25 21 18 16 14 10 5 2 2 5 7 9 11 13 15 16 17 18 19 20 21
34 31 26 23 21 17 14 10 5 5 5 6 8 9 11 12 14 15 16 18 19 20
37 34 31 29 24 20 18 15 12 10 11 11 12 12 13 13 14 17 17 18 19 21
41 39 36 33 30 26 24 21 18 17 15 16 17 18 19 19 19 19 21 22 23 25
43 43 43 40 36 34 31 28 25 24 22 22 22 24 24 24 24 25 25 26 28 28
41 45 45 44 41 40 36 34 33 31 29 28 28 30 30 30 31 32 31 32 35 35
34 39 42 42 42 42 42 41 39 38 38 37 36 38 37 38 38 39 38 40 42 44
24 29 35 38 40 42 45 45 45 46 47 47 46 46 45 46 45 46 47 48 49 50
29 30 34 38 41 44 47 48 49 50 52 54 56 55 53 54 54 54 56 58 57 56
35 36 37 39 41 43 46 48 51 52 54 55 57 58 58 57 59 62 63 65 65 68
34 34 36 37 39 41 43 45 47 50 52 56 56 58 59 61 64 66 67 67 69 73
30 30 31 33 34 37 39 42 45 49 50 52 53 55 57 61 64 67 69 70 70 72
25 26 27 29 31 33 36 38 41 42 44 48 52 55 56 57 62 67 71 72 71 70
18 19 21 23 26 29 32 35 39 41 44 48 51 54 55 56 57 63 68 71 73 70
Wind_Direction_850mb
218 218 217 211 204 200 196 192 183 21 23 22 14 14 12 7 2 2 5 4 1 356
223 221 221 222 217 214 214 215 240 280 304 321 330 337 346 347 347 345 349 349 347 343
230 227 226 228 229 230 232 236 247 260 279 293 298 310 315 322 329 329 332 333 331 331
235 235 234 235 237 239 242 248 256 265 274 285 289 296 298 306 310 313 316 319 322 323
236 237 238 239 240 243 248 255 261 267 275 281 285 284 285 290 295 298 302 307 311 315
238 240 242 242 243 248 253 258 263 267 274 280 281 280 281 284 285 287 293 300 303 305
242 246 248 249 248 249 253 260 264 267 269 272 276 279 280 280 280 284 289 294 297 299
247 245 245 245 249 251 254 257 259 263 266 268 271 276 277 277 279 282 285 288 292 294
234 235 236 239 243 245 249 253 258 262 263 265 271 273 278 281 281 282 284 287 288 289
236 239 241 244 248 251 254 257 261 264 267 269 271 275 278 282 285 287 288 290 291 291
236 240 243 246 249 254 257 259 263 267 271 274 275 277 281 284 285 286 288 289 290 290
230 238 244 249 250 253 259 264 269 272 274 276 277 278 280 283 286 287 288 289 290 292
234 242 249 254 259 264 266 270 271 273 276 278 281 284 285 287 289 291 291 291 293 294
240 250 258 265 270 273 276 278 279 281 285 287 288 290 292 293 293 293 296 296 296 297